Miscellaneous Local Product
Issued by NWS Hastings, NE

Home | Current Version | Previous Version | Text Only | Print | Product List | Glossary On
Versions: 1 2 3 4 5 6 7 8 9 10 11 12 13 14 15 16 17 18 19 20 21 22 23 24 25 26 27 28 29 30 31 32 33 34 35 36 37 38 39 40 41 42 43 44 45 46 47 48 49 50
000
AXUS43 KGID 230902
MISGRI

GID CWA HOURLY WEATHER ROUNDUP
NATIONAL WEATHER SERVICE HASTINGS NE
400 AM CDT SUN APR 23 2017

NOTE: "FAIR" INDICATES FEW OR NO CLOUDS BELOW 12,000 FEET WITH NO
SIGNIFICANT WEATHER AND/OR OBSTRUCTIONS TO VISIBILITY.

...SOUTH CENTRAL NEBRASKA...

CITY           SKY/WX    TMP DP  RH WIND       PRES   REMARKS
GRAND ISLAND   CLEAR     44  29  55 S7        30.18F
HASTINGS       CLEAR     43  28  55 CALM      30.19F
KEARNEY        CLEAR     43  27  52 SW6       30.18S
ORD            CLEAR     38  29  70 SW9       30.15F WCI  31
YORK           CLEAR     41  28  60 SW5       30.18S
AURORA         CLEAR     38  26  61 SW7       30.18S WCI  33
LEXINGTON      CLEAR     32  26  77 CALM      30.17S
HOLDREGE       CLEAR     41  28  58 SW7       30.17S
HEBRON         CLEAR     33  31  92 CALM      30.18F

...NEBRASKA PANHANDLE...

CITY           SKY/WX    TMP DP  RH WIND       PRES   REMARKS
CHADRON        CLOUDY    50  29  44 S16G24    29.99F
ALLIANCE       CLOUDY    36  30  79 S10       30.06F WCI  28
SCOTTSBLUFF    CLOUDY    49  31  49 S7G18     30.04F
SIDNEY         CLOUDY    35  31  85 S12       30.09F WCI  27

...WESTERN AND NORTH CENTRAL NEBRASKA...

CITY           SKY/WX    TMP DP  RH WIND       PRES   REMARKS
VALENTINE      PTCLDY    45  28  51 SW12      30.08F
AINSWORTH      CLEAR     43  32  66 S9        30.10F
ONEILL         CLEAR     41  31  68 S6        30.14F
BROKEN BOW     CLEAR     33  26  75 CALM      30.15F
IMPERIAL       CLEAR     37  31  78 SW8       30.15F WCI  31
NORTH PLATTE   CLEAR     35  28  75 CALM      30.15F
MCCOOK         CLEAR     34  29  82 W8        30.16F WCI  27

...EASTERN NEBRASKA...

CITY           SKY/WX    TMP DP  RH WIND       PRES   REMARKS
NORFOLK        CLEAR     39  30  70 SW5       30.16S
SO SIOUX CITY  CLEAR     39  33  79 CALM      30.15F
TEKAMAH        CLEAR     41  37  86 CALM      30.16S
COLUMBUS       CLEAR     37  32  81 NW3       30.18R
ALBION         CLEAR     42  31  64 CALM      30.17S
OMAHA EPPLEY   CLEAR     44  35  70 CALM      30.17S
OFFUTT AFB     CLEAR     35  33  94 CALM      30.16F
MILLARD        CLEAR     42  40  95 CALM      30.17S
LINCOLN        CLEAR     37  33  85 CALM      30.19F
NEBRASKA CITY  CLEAR     43  28  55 SW9       30.17F
BEATRICE       CLEAR     37  34  87 CALM      30.18F
FALLS CITY     CLEAR     40  33  76 CALM      30.18F

...NORTHERN KANSAS...

CITY           SKY/WX    TMP DP  RH WIND       PRES   REMARKS
GOODLAND       CLEAR     41  31  67 SW13      30.17F
HILL CITY      CLEAR     36  31  82 W6        30.21F WCI  31
NORTON         SUNNY     34  25  69 SW8       30.18S WCI  27
PHILLIPSBURG   CLEAR     34  28  80 E3        30.19F
SMITH CENTER   CLEAR     43  30  61 SW3       30.20F
HAYS           CLEAR     33  31  92 CALM      30.21F
RUSSELL        CLEAR     38  32  79 SW6       30.19F WCI  33
CONCORDIA      CLEAR     39  33  79 CALM      30.19F
SALINA         CLEAR     41  35  79 CALM      30.21F
TOPEKA         CLEAR     39  39 100 CALM      30.18F



USA.gov is the U.S. government's official web portal to all federal, state and local government web resources and services.